JNA511 RKSI-RKPC

Flight info

Callsign JNA511
Flight time N/A
Altitude 34000
Route BOPTA2A BOPTA Z51 MOXID/N0456F360 Z51 BEDES Y711 DOTOL DOTOL2M
Aircraft B738/M-SDE2E3FGHIRWXY/LB1

Departure

Time 2026-05-07 15:22
Airport Incheon International Airport (RKSI)

Arrival

Time N/A
Airport Jeju International Airport (RKPC)
Time Latitude Longitude Altitude Speed Heading
2026-05-07 14:37 37.44806 126.44760 23 ft 0 kts 89°
2026-05-07 15:09 37.44806 126.44751 30 ft 2 kts 93°
2026-05-07 15:10 37.44807 126.44739 32 ft 2 kts 97°
2026-05-07 15:10 37.44809 126.44722 31 ft 2 kts 111°
2026-05-07 15:10 37.44820 126.44706 33 ft 2 kts 178°
2026-05-07 15:10 37.44831 126.44709 33 ft 1 kts 218°
2026-05-07 15:11 37.44835 126.44713 33 ft 1 kts 225°
2026-05-07 15:11 37.44836 126.44714 33 ft 0 kts 228°
2026-05-07 15:15 37.44815 126.44676 31 ft 8 kts 243°
2026-05-07 15:15 37.44787 126.44615 31 ft 8 kts 218°
2026-05-07 15:15 37.44731 126.44602 31 ft 8 kts 188°
2026-05-07 15:15 37.44678 126.44588 31 ft 8 kts 192°
2026-05-07 15:16 37.44620 126.44573 30 ft 9 kts 192°
2026-05-07 15:16 37.44568 126.44539 31 ft 9 kts 232°
2026-05-07 15:16 37.44535 126.44482 31 ft 8 kts 234°
2026-05-07 15:16 37.44501 126.44423 29 ft 8 kts 234°
2026-05-07 15:17 37.44467 126.44366 31 ft 8 kts 234°
2026-05-07 15:17 37.44436 126.44311 31 ft 6 kts 234°
2026-05-07 15:17 37.44435 126.44310 31 ft 0 kts 234°
2026-05-07 15:20 37.44396 126.44242 31 ft 14 kts 234°
2026-05-07 15:20 37.44372 126.44133 31 ft 14 kts 303°
2026-05-07 15:20 37.44393 126.44116 31 ft 1 kts 354°
2026-05-07 15:21 37.44395 126.44117 29 ft 2 kts
2026-05-07 15:21 37.44407 126.44106 31 ft 2 kts 314°
2026-05-07 15:21 37.44419 126.44090 31 ft 2 kts 315°
2026-05-07 15:21 37.44445 126.44063 31 ft 12 kts 322°
2026-05-07 15:22 37.44643 126.43870 31 ft 70 kts 322°
2026-05-07 15:22 37.45221 126.43388 31 ft 128 kts 326°
2026-05-07 15:22 37.46080 126.42605 82 ft 172 kts 323°
2026-05-07 15:22 37.47057 126.41706 673 ft 175 kts 323°
2026-05-07 15:23 37.48076 126.40785 1334 ft 182 kts 323°
2026-05-07 15:23 37.49040 126.39805 2111 ft 185 kts 309°
2026-05-07 15:23 37.49854 126.38416 2336 ft 207 kts 307°
2026-05-07 15:23 37.50574 126.36776 2457 ft 225 kts 279°
2026-05-07 15:24 37.50566 126.34748 2667 ft 241 kts 268°
2026-05-07 15:24 37.50540 126.32559 2941 ft 257 kts 270°
2026-05-07 15:24 37.50557 126.30287 3561 ft 260 kts 271°
2026-05-07 15:24 37.50597 126.28029 4252 ft 262 kts 271°
2026-05-07 15:25 37.50647 126.25694 4918 ft 265 kts 271°
2026-05-07 15:25 37.50701 126.23397 5555 ft 267 kts 271°
2026-05-07 15:25 37.50720 126.21049 6184 ft 270 kts 263°
2026-05-07 15:25 37.50090 126.18830 6772 ft 273 kts 234°
2026-05-07 15:26 37.48684 126.17246 7378 ft 275 kts 208°
2026-05-07 15:26 37.46921 126.16320 7982 ft 278 kts 200°
2026-05-07 15:26 37.45137 126.15513 8541 ft 281 kts 200°
2026-05-07 15:26 37.43283 126.14700 9137 ft 284 kts 194°
2026-05-07 15:27 37.41314 126.14596 9678 ft 287 kts 167°
2026-05-07 15:27 37.39501 126.15635 10228 ft 291 kts 142°
2026-05-07 15:27 37.38024 126.17471 10417 ft 309 kts 131°
2026-05-07 15:27 37.36598 126.19595 10583 ft 327 kts 130°
2026-05-07 15:28 37.35090 126.21832 10738 ft 344 kts 131°
2026-05-07 15:28 37.33530 126.24099 11494 ft 338 kts 131°
2026-05-07 15:28 37.31999 126.26303 12345 ft 333 kts 131°
2026-05-07 15:28 37.30463 126.28499 12894 ft 337 kts 131°
2026-05-07 15:29 37.28907 126.30720 13402 ft 341 kts 131°
2026-05-07 15:29 37.27337 126.32962 13947 ft 343 kts 131°
2026-05-07 15:29 37.25755 126.35218 14481 ft 346 kts 131°
2026-05-07 15:29 37.24160 126.37494 15004 ft 348 kts 131°
2026-05-07 15:30 37.22554 126.39783 15511 ft 351 kts 131°
2026-05-07 15:30 37.20935 126.42088 16016 ft 354 kts 131°
2026-05-07 15:30 37.19155 126.44225 16473 ft 357 kts 148°
2026-05-07 15:30 37.16911 126.45547 16963 ft 357 kts 159°
2026-05-07 15:31 37.14571 126.46628 17449 ft 360 kts 160°
2026-05-07 15:31 37.12208 126.47701 17892 ft 363 kts 160°
2026-05-07 15:31 37.09824 126.48802 18339 ft 366 kts 160°
2026-05-07 15:31 37.07437 126.49924 18798 ft 368 kts 159°
2026-05-07 15:32 37.05029 126.51065 19253 ft 371 kts 159°
2026-05-07 15:32 37.02590 126.52146 19681 ft 373 kts 163°
2026-05-07 15:32 37.00080 126.53007 20106 ft 375 kts 166°
2026-05-07 15:32 36.97537 126.53791 20524 ft 378 kts 166°
2026-05-07 15:33 36.95037 126.54562 20927 ft 380 kts 166°
2026-05-07 15:33 36.93047 126.55195 21229 ft 382 kts 166°
2026-05-07 15:33 36.90471 126.56035 21635 ft 384 kts 165°
2026-05-07 15:33 36.87876 126.56890 22023 ft 387 kts 165°
2026-05-07 15:34 36.85300 126.57741 22403 ft 389 kts 165°
2026-05-07 15:34 36.82674 126.58608 22762 ft 391 kts 165°
2026-05-07 15:34 36.80039 126.59475 23124 ft 393 kts 165°
2026-05-07 15:34 36.77381 126.60350 23460 ft 396 kts 165°
2026-05-07 15:35 36.74706 126.61229 23780 ft 399 kts 165°
2026-05-07 15:35 36.72032 126.62111 24092 ft 401 kts 165°
2026-05-07 15:35 36.69317 126.63020 24433 ft 403 kts 165°
2026-05-07 15:35 36.66604 126.63934 24791 ft 404 kts 165°
2026-05-07 15:36 36.63890 126.64848 25103 ft 406 kts 165°
2026-05-07 15:36 36.61155 126.65769 25397 ft 408 kts 165°
2026-05-07 15:36 36.58408 126.66692 25712 ft 409 kts 165°
2026-05-07 15:36 36.55655 126.67616 25992 ft 411 kts 165°
2026-05-07 15:37 36.52870 126.68548 25983 ft 417 kts 165°
2026-05-07 15:37 36.50070 126.69485 26000 ft 416 kts 165°
2026-05-07 15:37 36.47284 126.70418 25987 ft 413 kts 165°
2026-05-07 15:37 36.44517 126.71343 25994 ft 410 kts 165°
2026-05-07 15:38 36.41757 126.72264 26008 ft 412 kts 165°
2026-05-07 15:38 36.38990 126.73187 25998 ft 413 kts 165°
2026-05-07 15:38 36.36207 126.74120 26004 ft 415 kts 165°
2026-05-07 15:38 36.33397 126.75068 26011 ft 422 kts 165°
2026-05-07 15:39 36.30542 126.76033 26014 ft 429 kts 165°
2026-05-07 15:39 36.27643 126.77013 26016 ft 435 kts 165°
2026-05-07 15:39 36.24706 126.78004 26017 ft 441 kts 165°
2026-05-07 15:39 36.21722 126.79009 26011 ft 445 kts 165°
2026-05-07 15:40 36.18724 126.80017 26005 ft 446 kts 165°
2026-05-07 15:40 36.15690 126.80822 25993 ft 446 kts 173°
2026-05-07 15:40 36.12596 126.81057 25999 ft 446 kts 182°
2026-05-07 15:40 36.09506 126.80756 26011 ft 445 kts 186°
2026-05-07 15:41 36.06423 126.80366 25996 ft 445 kts 186°
2026-05-07 15:41 36.03352 126.79980 26004 ft 444 kts 186°
2026-05-07 15:41 36.00282 126.79616 25997 ft 443 kts 185°
2026-05-07 15:41 35.97217 126.79274 25995 ft 442 kts 185°
2026-05-07 15:42 35.94155 126.78943 25994 ft 441 kts 185°
2026-05-07 15:42 35.91106 126.78616 25995 ft 440 kts 185°
2026-05-07 15:42 35.88062 126.78289 25997 ft 439 kts 185°
2026-05-07 15:42 35.85019 126.77960 26000 ft 438 kts 185°
2026-05-07 15:43 35.81985 126.77631 26002 ft 438 kts 185°
2026-05-07 15:43 35.78943 126.77302 26000 ft 438 kts 185°
2026-05-07 15:43 35.75905 126.76973 26002 ft 438 kts 185°
2026-05-07 15:43 35.72906 126.76648 26004 ft 439 kts 185°
2026-05-07 15:44 35.69863 126.76320 26002 ft 439 kts 185°
2026-05-07 15:44 35.66818 126.75991 26001 ft 439 kts 185°
2026-05-07 15:44 35.63764 126.75662 26002 ft 440 kts 185°
2026-05-07 15:44 35.60716 126.75333 26004 ft 440 kts 185°
2026-05-07 15:45 35.57665 126.75005 26001 ft 441 kts 185°
2026-05-07 15:45 35.54609 126.74676 26001 ft 441 kts 185°
2026-05-07 15:45 35.51552 126.74347 26004 ft 441 kts 185°
2026-05-07 15:45 35.48492 126.74019 26002 ft 442 kts 185°
2026-05-07 15:46 35.42360 126.73362 25998 ft 443 kts 185°
2026-05-07 15:46 35.39286 126.73033 25997 ft 443 kts 185°
2026-05-07 15:46 35.36213 126.72705 25998 ft 443 kts 185°
2026-05-07 15:47 35.33143 126.72377 26007 ft 443 kts 185°
2026-05-07 15:47 35.30072 126.72050 26007 ft 443 kts 185°
2026-05-07 15:47 35.27002 126.71722 26002 ft 443 kts 185°
2026-05-07 15:47 35.23928 126.71394 25999 ft 443 kts 185°
2026-05-07 15:48 35.20863 126.71067 26002 ft 442 kts 185°
2026-05-07 15:48 35.17797 126.70741 25995 ft 442 kts 185°
2026-05-07 15:48 35.14734 126.70415 26000 ft 441 kts 185°
2026-05-07 15:48 35.11713 126.70095 25978 ft 428 kts 185°
2026-05-07 15:49 35.08795 126.69785 25982 ft 413 kts 185°
2026-05-07 15:49 35.05942 126.69482 25993 ft 410 kts 185°
2026-05-07 15:49 35.03095 126.69180 26005 ft 411 kts 185°
2026-05-07 15:49 35.00226 126.68876 25663 ft 416 kts 185°
2026-05-07 15:50 34.97358 126.68571 25288 ft 413 kts 185°
2026-05-07 15:50 34.94498 126.68269 24815 ft 411 kts 185°
2026-05-07 15:50 34.91647 126.67967 24357 ft 409 kts 185°
2026-05-07 15:50 34.88815 126.67667 23889 ft 408 kts 185°
2026-05-07 15:51 34.86032 126.67373 23426 ft 406 kts 185°
2026-05-07 15:51 34.83227 126.67077 22958 ft 404 kts 185°
2026-05-07 15:51 34.80427 126.66781 22484 ft 402 kts 185°
2026-05-07 15:51 34.77671 126.66491 22004 ft 393 kts 185°
2026-05-07 15:52 34.74968 126.66206 21545 ft 385 kts 185°
2026-05-07 15:52 34.72328 126.65928 21097 ft 378 kts 185°
2026-05-07 15:52 34.69738 126.65655 20667 ft 370 kts 185°
2026-05-07 15:52 34.67174 126.65385 20247 ft 369 kts 185°
2026-05-07 15:53 34.64624 126.65117 19822 ft 368 kts 185°
2026-05-07 15:53 34.62076 126.64849 19391 ft 368 kts 185°
2026-05-07 15:53 34.59524 126.64581 18959 ft 367 kts 185°
2026-05-07 15:53 34.56980 126.64314 18528 ft 367 kts 185°
2026-05-07 15:54 34.55298 126.64137 18241 ft 367 kts 185°
2026-05-07 15:54 34.51899 126.63781 17657 ft 366 kts 185°
2026-05-07 15:54 34.50218 126.63605 17372 ft 366 kts 185°
2026-05-07 15:54 34.47682 126.63339 16937 ft 365 kts 185°
2026-05-07 15:55 34.45150 126.63074 16504 ft 365 kts 185°
2026-05-07 15:55 34.42627 126.62810 16076 ft 364 kts 185°
2026-05-07 15:55 34.39274 126.62461 15623 ft 359 kts 185°
2026-05-07 15:55 34.37632 126.62289 15393 ft 357 kts 185°
2026-05-07 15:56 34.35168 126.62032 15073 ft 353 kts 185°
2026-05-07 15:56 34.32734 126.61778 14753 ft 349 kts 185°
2026-05-07 15:56 34.30325 126.61527 14438 ft 346 kts 185°
2026-05-07 15:56 34.27940 126.61279 14123 ft 342 kts 185°
2026-05-07 15:57 34.25584 126.61034 13821 ft 339 kts 185°
2026-05-07 15:57 34.23243 126.60789 13520 ft 336 kts 185°
2026-05-07 15:57 34.20919 126.60547 13218 ft 334 kts 185°
2026-05-07 15:57 34.18611 126.60307 12890 ft 333 kts 185°
2026-05-07 15:58 34.16309 126.60068 12567 ft 331 kts 185°
2026-05-07 15:58 34.14019 126.59830 12263 ft 329 kts 185°
2026-05-07 15:58 34.11737 126.59593 11958 ft 328 kts 185°
2026-05-07 15:58 34.09471 126.59358 11663 ft 326 kts 185°
2026-05-07 15:59 34.07214 126.59124 11359 ft 325 kts 185°
2026-05-07 15:59 34.04972 126.58891 11068 ft 322 kts 185°
2026-05-07 15:59 34.02750 126.58844 10748 ft 319 kts 170°
2026-05-07 15:59 34.00701 126.59783 10473 ft 315 kts 146°
2026-05-07 16:00 33.99157 126.61608 10185 ft 309 kts 123°
2026-05-07 16:00 33.98293 126.63910 9914 ft 298 kts 102°
2026-05-07 16:00 33.98006 126.66295 9864 ft 281 kts 96°
2026-05-07 16:00 33.97798 126.68639 9463 ft 278 kts 96°
2026-05-07 16:01 33.97605 126.70897 9170 ft 273 kts 96°
2026-05-07 16:01 33.97333 126.73139 8877 ft 269 kts 110°
2026-05-07 16:01 33.96292 126.74969 8327 ft 269 kts 145°
2026-05-07 16:01 33.94586 126.75839 7842 ft 268 kts 170°
2026-05-07 16:02 33.92735 126.75999 7420 ft 266 kts 180°
2026-05-07 16:02 33.90885 126.75999 7000 ft 265 kts 181°
2026-05-07 16:02 33.89044 126.75981 6693 ft 263 kts 181°
2026-05-07 16:02 33.87222 126.75968 6449 ft 262 kts 180°
2026-05-07 16:03 33.85393 126.75963 6203 ft 263 kts 180°
2026-05-07 16:03 33.83567 126.75964 5950 ft 262 kts 180°
2026-05-07 16:03 33.81755 126.75969 5701 ft 261 kts 180°
2026-05-07 16:03 33.79933 126.75977 5448 ft 260 kts 180°
2026-05-07 16:04 33.78134 126.75987 5199 ft 258 kts 180°
2026-05-07 16:04 33.76347 126.75998 4941 ft 256 kts 180°
2026-05-07 16:04 33.74572 126.76010 4686 ft 254 kts 180°
2026-05-07 16:04 33.72810 126.76022 4458 ft 251 kts 180°
2026-05-07 16:05 33.71092 126.76035 4329 ft 244 kts 180°
2026-05-07 16:05 33.69411 126.76047 4112 ft 241 kts 180°
2026-05-07 16:05 33.67762 126.76058 3992 ft 232 kts 180°
2026-05-07 16:05 33.66203 126.76053 3983 ft 215 kts 186°
2026-05-07 16:06 33.64890 126.75438 3938 ft 196 kts 220°
2026-05-07 16:06 33.63983 126.74255 3750 ft 190 kts 237°
2026-05-07 16:06 33.63289 126.72911 3603 ft 190 kts 239°
2026-05-07 16:06 33.62614 126.71556 3407 ft 188 kts 239°
2026-05-07 16:07 33.61931 126.70199 3294 ft 196 kts 239°
2026-05-07 16:07 33.61249 126.68852 3195 ft 188 kts 239°
2026-05-07 16:07 33.60579 126.67531 2919 ft 179 kts 239°
2026-05-07 16:07 33.59940 126.66271 2764 ft 187 kts 239°
2026-05-07 16:08 33.59236 126.64888 2904 ft 194 kts 239°
2026-05-07 16:08 33.58723 126.63882 2904 ft 182 kts 239°
2026-05-07 16:08 33.58089 126.62644 2757 ft 164 kts 239°
2026-05-07 16:08 33.57514 126.61521 2413 ft 156 kts 239°
2026-05-07 16:09 33.56940 126.60400 1973 ft 155 kts 239°
2026-05-07 16:09 33.56378 126.59302 1535 ft 154 kts 239°
2026-05-07 16:09 33.55826 126.58224 1105 ft 153 kts 239°
2026-05-07 16:09 33.55269 126.57135 725 ft 157 kts 239°
2026-05-07 16:10 33.54654 126.55935 699 ft 167 kts 239°
2026-05-07 16:10 33.54066 126.54789 736 ft 157 kts 239°
2026-05-07 16:10 33.53494 126.53675 595 ft 159 kts 238°
2026-05-07 16:10 33.52928 126.52573 477 ft 153 kts 239°
2026-05-07 16:11 33.52374 126.51494 335 ft 151 kts 239°
2026-05-07 16:11 33.51819 126.50415 201 ft 153 kts 238°
2026-05-07 16:11 33.51262 126.49328 93 ft 152 kts 238°
2026-05-07 16:11 33.50723 126.48251 90 ft 150 kts 239°
2026-05-07 16:12 33.50256 126.47354 94 ft 80 kts 236°